Simultaneous Nadir Overpasses (SNOs) Predictions

Prediction of SNOs between AQUA and NPP Satellite Orbit:

Table of predicted SNOs for the next 14.0 days since TLE Epoch: 7/25/2014
Index Date (AQUA) Time (AQUA) Lat,Lon (AQUA) SZA (AQUA ) Date (NPP) Time (NPP) Lat,Lon (NPP) SZA (NPP ) Distance(km) Time Diff (sec)
1 07/27/2014 09:16:52 48.46,-105.98 106.85 07/27/2014 09:16:13 48.46,-105.96 106.90 1.05 39
2 07/27/2014 10:03:31 -58.46, 66.56 82.94 07/27/2014 10:04:05 -58.47, 66.59 83.00 2.01 34
3 07/30/2014 01:32:30 51.61, 11.22 104.38 07/30/2014 01:32:18 51.61, 11.23 104.39 0.43 12
4 07/30/2014 02:19:40 -59.75,-176.76 83.63 07/30/2014 02:20:42 -59.75,-176.77 83.70 0.70 62
5 08/01/2014 17:01:12 -46.00, -42.84 69.61 08/01/2014 17:00:13 -46.01, -42.76 69.55 6.21 59
6 08/01/2014 17:48:06 54.84, 128.64 101.82 08/01/2014 17:48:21 54.85, 128.66 101.79 1.06 15
7 08/01/2014 18:25:00 -76.19, 71.98 121.36 08/01/2014 18:26:13 -75.72, 69.40 121.67 87.43 73
8 08/04/2014 09:17:15 -47.59, 73.64 70.51 08/04/2014 09:16:44 -47.60, 73.66 70.48 1.77 31
9 08/04/2014 10:04:04 56.71,-114.49 100.64 08/04/2014 10:04:47 56.71,-114.51 100.59 1.18 43
10 08/07/2014 01:33:07 -49.88,-169.57 72.06 08/07/2014 01:33:04 -49.87,-169.59 72.05 1.52 3




NCC Satellite Simultaneous Nadir Overpasses (SNOs) Prediction Service
